Location: Juzet
(42.9779°N, 0.7597°E)
Time: 02:40:54
(UTC+00:00)

Landsat 4 - Pass Details

Date: 14 July 2020
Orbit: 506 x 522 km, 98.2° (Epoch: 04 August)

Event Time Altitude Azimuth Distance (km) Brightness Sun altitude
Rises 00:05:37 0° 13° (NNE) 2,657 8.6 -25.4°
Reaches altitude 10° 00:07:44 10° 14° (NNE) 1,765 7.4 -25.4°
Enters shadow 00:10:40 52° 20° (NNE) 656 4.4 -25.4°
